Satellite: NOAA-11 Catalog number: 19531 Epoch time: 11271.79784607 Element set: 0649 Inclination: 098.7497 deg RA of node: 357.2833 deg Eccentricity: 0.0010412 Arg of perigee: 252.7873 deg Mean anomaly: 107.2192 deg Mean motion: 14.14925652 rev/day Decay rate: 2.33e-06 rev/day^2 Epoch rev: 18740 Checksum: 316
Satellite: NOAA-12 Catalog number: 21263 Epoch time: 11271.95183420 Element set: 0156 Inclination: 098.7479 deg RA of node: 289.6028 deg Eccentricity: 0.0011475 Arg of perigee: 245.1027 deg Mean anomaly: 114.8961 deg Mean motion: 14.25743668 rev/day Decay rate: 1.73e-06 rev/day^2 Epoch rev: 05919 Checksum: 312
Satellite: MET-3/5 Catalog number: 21655 Epoch time: 11271.83084890 Element set: 0222 Inclination: 082.5621 deg RA of node: 337.5491 deg Eccentricity: 0.0012078 Arg of perigee: 257.1849 deg Mean anomaly: 102.7928 deg Mean motion: 13.17033194 rev/day Decay rate: 5.1e-07 rev/day^2 Epoch rev: 96736 Checksum: 304
Satellite: MET-2/21 Catalog number: 22782 Epoch time: 11271.51907063 Element set: 0216 Inclination: 082.5445 deg RA of node: 240.8872 deg Eccentricity: 0.0022826 Arg of perigee: 165.0958 deg Mean anomaly: 195.0875 deg Mean motion: 13.83661667 rev/day Decay rate: -4.9e-07 rev/day^2 Epoch rev: 91284 Checksum: 322
Satellite: OKEAN-4 Catalog number: 23317 Epoch time: 11271.92861794 Element set: 0742 Inclination: 082.5372 deg RA of node: 276.2613 deg Eccentricity: 0.0023194 Arg of perigee: 133.1456 deg Mean anomaly: 227.1708 deg Mean motion: 14.83175857 rev/day Decay rate: 1.338e-05 rev/day^2 Epoch rev: 91592 Checksum: 313
Satellite: NOAA-14 Catalog number: 23455 Epoch time: 11271.92525033 Element set: 0640 Inclination: 098.8468 deg RA of node: 353.5021 deg Eccentricity: 0.0009465 Arg of perigee: 350.9244 deg Mean anomaly: 009.1751 deg Mean motion: 14.13834050 rev/day Decay rate: 4.3e-07 rev/day^2 Epoch rev: 86373 Checksum: 285
Satellite: NOAA-15 Catalog number: 25338 Epoch time: 11271.73705698 Element set: 0963 Inclination: 098.6652 deg RA of node: 256.5160 deg Eccentricity: 0.0011138 Arg of perigee: 146.8172 deg Mean anomaly: 213.3698 deg Mean motion: 14.24954612 rev/day Decay rate: 1.11e-06 rev/day^2 Epoch rev: 69547 Checksum: 320
Satellite: RESURS Catalog number: 25394 Epoch time: 11271.94168867 Element set: 0924 Inclination: 098.3059 deg RA of node: 269.2780 deg Eccentricity: 0.0000749 Arg of perigee: 332.4610 deg Mean anomaly: 027.6532 deg Mean motion: 14.24242142 rev/day Decay rate: 1.17e-06 rev/day^2 Epoch rev: 68707 Checksum: 303
Satellite: FENGYUN1 Catalog number: 25730 Epoch time: 11271.93996845 Element set: 0438 Inclination: 098.8250 deg RA of node: 230.8992 deg Eccentricity: 0.0025305 Arg of perigee: 025.6585 deg Mean anomaly: 334.5830 deg Mean motion: 14.08836494 rev/day Decay rate: 2.271e-05 rev/day^2 Epoch rev: 63767 Checksum: 331
Satellite: OKEAN-0 Catalog number: 25860 Epoch time: 11271.96901293 Element set: 0424 Inclination: 097.8972 deg RA of node: 235.6331 deg Eccentricity: 0.0001705 Arg of perigee: 051.9494 deg Mean anomaly: 308.1866 deg Mean motion: 14.73850515 rev/day Decay rate: 6.60e-06 rev/day^2 Epoch rev: 65594 Checksum: 314
Satellite: NOAA-16 Catalog number: 26536 Epoch time: 11271.69946397 Element set: 0446 Inclination: 099.1327 deg RA of node: 304.3052 deg Eccentricity: 0.0011403 Arg of perigee: 101.3266 deg Mean anomaly: 258.9181 deg Mean motion: 14.12648699 rev/day Decay rate: 2.18e-06 rev/day^2 Epoch rev: 56797 Checksum: 323
Satellite: NOAA-17 Catalog number: 27453 Epoch time: 11271.79510190 Element set: 0433 Inclination: 098.3707 deg RA of node: 306.7006 deg Eccentricity: 0.0011292 Arg of perigee: 201.6592 deg Mean anomaly: 158.4120 deg Mean motion: 14.24317584 rev/day Decay rate: 1.78e-06 rev/day^2 Epoch rev: 48140 Checksum: 282
Satellite: NOAA-18 Catalog number: 28654 Epoch time: 11271.80609242 Element set: 0911 Inclination: 099.0075 deg RA of node: 223.2620 deg Eccentricity: 0.0014328 Arg of perigee: 169.7731 deg Mean anomaly: 190.3752 deg Mean motion: 14.11517597 rev/day Decay rate: 2.8e-07 rev/day^2 Epoch rev: 32754 Checksum: 297
Satellite: NOAA-19 Catalog number: 33591 Epoch time: 11271.82630645 Element set: 0102 Inclination: 098.8337 deg RA of node: 210.2700 deg Eccentricity: 0.0014938 Arg of perigee: 045.2728 deg Mean anomaly: 314.9676 deg Mean motion: 14.11209275 rev/day Decay rate: 3.11e-06 rev/day^2 Epoch rev: 13600 Checksum: 276
/EX SB KEPS @ AMSAT $ORB11272.M Orbital Elements 11272.MISC
HR AMSAT ORBITAL ELEMENTS FOR MANNED AND MISCELLANEOUS SATELLITES FROM WA5QGD FORT WORTH,TX September 29, 2011 Send Subscribe/unsubscribe to KEPS at http://www.amsat.org/mailman/listinfo/keps BID: ORB11272.M TO ALL RADIO AMATEURS BT
Satellite: HUBBLE Catalog number: 20580 Epoch time: 11271.81346906 Element set: 841 Inclination: 028.4701 deg RA of node: 059.4563 deg Eccentricity: 0.0003225 Arg of perigee: 130.3425 deg Mean anomaly: 229.7364 deg Mean motion: 15.01553877 rev/day Decay rate: 2.349e-05 rev/day^2 Epoch rev: 97524 Checksum: 289
Satellite: ISS Catalog number: 25544 Epoch time: 11272.40797881 Element set: 149 Inclination: 051.6424 deg RA of node: 356.0575 deg Eccentricity: 0.0010189 Arg of perigee: 249.1943 deg Mean anomaly: 203.1638 deg Mean motion: 15.61743940 rev/day Decay rate: 3.0618e-04 rev/day^2 Epoch rev: 73718 Checksum: 309
Satellite: CO-58 Catalog number: 28895 Epoch time: 11271.67843523 Element set: 0986 Inclination: 097.9491 deg RA of node: 143.9802 deg Eccentricity: 0.0016717 Arg of perigee: 254.9397 deg Mean anomaly: 104.9959 deg Mean motion: 14.60190713 rev/day Decay rate: 8.82e-06 rev/day^2 Epoch rev: 31534 Checksum: 358
Satellite: FALCON Catalog number: 30776 Epoch time: 11271.87670289 Element set: 0194 Inclination: 035.4325 deg RA of node: 076.3366 deg Eccentricity: 0.0002189 Arg of perigee: 294.7960 deg Mean anomaly: 065.2528 deg Mean motion: 15.05063988 rev/day Decay rate: 4.814e-05 rev/day^2 Epoch rev: 25067 Checksum: 324
Satellite: MAST Catalog number: 31126 Epoch time: 11271.96436887 Element set: 0272 Inclination: 097.8911 deg RA of node: 293.3029 deg Eccentricity: 0.0093579 Arg of perigee: 207.2529 deg Mean anomaly: 152.3748 deg Mean motion: 14.53816022 rev/day Decay rate: 6.82e-06 rev/day^2 Epoch rev: 23616 Checksum: 315
Satellite: CAPE1 Catalog number: 31130 Epoch time: 11271.49554565 Element set: 0284 Inclination: 097.8931 deg RA of node: 289.4813 deg Eccentricity: 0.0101106 Arg of perigee: 220.0394 deg Mean anomaly: 139.3376 deg Mean motion: 14.52480049 rev/day Decay rate: 8.45e-06 rev/day^2 Epoch rev: 23563 Checksum: 293
Satellite: COMPASS Catalog number: 32787 Epoch time: 11271.61063798 Element set: 0104 Inclination: 097.8395 deg RA of node: 333.4543 deg Eccentricity: 0.0015130 Arg of perigee: 194.9680 deg Mean anomaly: 165.1120 deg Mean motion: 14.82665910 rev/day Decay rate: 3.166e-05 rev/day^2 Epoch rev: 18488 Checksum: 308
Satellite: AAUSAT2 Catalog number: 32788 Epoch time: 11271.62834939 Element set: 0095 Inclination: 097.8376 deg RA of node: 333.7287 deg Eccentricity: 0.0014583 Arg of perigee: 196.4646 deg Mean anomaly: 163.6149 deg Mean motion: 14.82871023 rev/day Decay rate: 3.525e-05 rev/day^2 Epoch rev: 18490 Checksum: 341
Satellite: DO-64 Catalog number: 32789 Epoch time: 11271.73591633 Element set: 0110 Inclination: 097.8477 deg RA of node: 335.0493 deg Eccentricity: 0.0014740 Arg of perigee: 192.9014 deg Mean anomaly: 167.1829 deg Mean motion: 14.83482054 rev/day Decay rate: 5.058e-05 rev/day^2 Epoch rev: 18493 Checksum: 326
Satellite: CO-66 Catalog number: 32791 Epoch time: 11271.65001745 Element set: 0097 Inclination: 097.8392 deg RA of node: 333.3972 deg Eccentricity: 0.0015510 Arg of perigee: 194.6362 deg Mean anomaly: 165.4436 deg Mean motion: 14.82314652 rev/day Decay rate: 1.965e-05 rev/day^2 Epoch rev: 18483 Checksum: 320
Satellite: RS-30 Catalog number: 32953 Epoch time: 11271.89759913 Element set: 0123 Inclination: 082.4973 deg RA of node: 098.2481 deg Eccentricity: 0.0018850 Arg of perigee: 157.9603 deg Mean anomaly: 202.2293 deg Mean motion: 12.43015257 rev/day Decay rate: 1.0e-07 rev/day^2 Epoch rev: 15197 Checksum: 297
Satellite: TACSAT-3 Catalog number: 35001 Epoch time: 11271.87671680 Element set: 0719 Inclination: 040.4522 deg RA of node: 261.5546 deg Eccentricity: 0.0019782 Arg of perigee: 263.9475 deg Mean anomaly: 095.9092 deg Mean motion: 15.53050068 rev/day Decay rate: 4.8964e-04 rev/day^2 Epoch rev: 13318 Checksum: 315
Satellite: PHARMSAT Catalog number: 35002 Epoch time: 11272.08446107 Element set: 661 Inclination: 040.4702 deg RA of node: 258.8654 deg Eccentricity: 0.0021675 Arg of perigee: 273.7505 deg Mean anomaly: 086.1200 deg Mean motion: 15.51807040 rev/day Decay rate: 3.4924e-04 rev/day^2 Epoch rev: 13323 Checksum: 260
Satellite: HAWKSAT1 Catalog number: 35003 Epoch time: 11271.87948404 Element set: 0798 Inclination: 040.4448 deg RA of node: 206.8149 deg Eccentricity: 0.0013724 Arg of perigee: 247.5373 deg Mean anomaly: 112.4264 deg Mean motion: 15.99654550 rev/day Decay rate: 9.75660e-03 rev/day^2 Epoch rev: 13378 Checksum: 324
Satellite: CP6 Catalog number: 35004 Epoch time: 11247.64656856 Element set: 784 Inclination: 040.4403 deg RA of node: 342.9642 deg Eccentricity: 0.0002956 Arg of perigee: 038.0069 deg Mean anomaly: 322.2231 deg Mean motion: 16.41039951 rev/day Decay rate: 1.6152067e-01 rev/day^2 Epoch rev: 13013 Checksum: 285
Satellite: METEOR-M Catalog number: 35865 Epoch time: 11271.94886334 Element set: 0767 Inclination: 098.6941 deg RA of node: 325.6734 deg Eccentricity: 0.0003353 Arg of perigee: 088.2079 deg Mean anomaly: 271.9480 deg Mean motion: 14.21840921 rev/day Decay rate: 1.77e-06 rev/day^2 Epoch rev: 10533 Checksum: 319
